784  
ASUS46 KPDT 022325  
RWRPDT  
PENDLETON REGIONAL WEATHER ROUNDUP  
NATIONAL WEATHER SERVICE PENDLETON OREGON  
400 PM PDT TUE SEP 2 2014  
 
NOTE: FAIR INDICATES FEW OR NO CLOUDS BELOW 12,000 FEET WITH NO  
SIGNIFICANT WEATHER AND/OR S TO VISIBILITY
.  
 
# INDICATES UNOFFICIAL STATION AND DATA  
 
WAZ520-030010-  
EAST SLOPES OF WASHINGTON CASCADES  
 
CITY SKY/WX TMP DP RH WIND PRES REMARKS
 
#CLE ELUM HS N/A 62 47 58 W7 29.78F  
#CLE ELUM 2NW N/A 59 47 64 SW5 N/A  
#CLE ELUM LAKE N/A 57 48 72 SW2 29.74F  
#CLIFFDEL 2NW N/A 60 47 62 N5 N/A  
#GLENWOOD N/A 67 51 56 SW8 29.77F  
#MANASTASH CYN N/A 68 46 45 CALM 29.78F  
#NELSON N/A 62 48 60 N1 29.76F  
#NELSON 3SW N/A 58 48 69 CALM 29.93F  
#NILE N/A 68 49 51 SW5 29.00F  
#PEOH POINT N/A 54 45 71 W2 N/A  
#RONALD 2NW N/A 60 47 62 NW2 29.69F  
#TEANAWAY 4NE N/A 66 49 54 CALM N/A  
#TROUT LAKE 1NE N/A 66 49 54 NW9 29.81F  

 
 
WAZ521-030010-  
SIMCOE HIGHLANDS  
 
CITY SKY/WX TMP DP RH WIND PRES REMARKS
 
#BICKLETON HS N/A 71 39 31 W12 29.85S  
#CENTERVILLE 4W N/A 68 48 49 W31 29.57S  
#CENTERVILLE 1SWN/A 67 48 50 W33 29.71F  
#GOLDENDALE N/A 74 46 37 W16G29 N/A  
#GOLDENDALE 1NE N/A 71 40 32 SW10 N/A  
#GOLDENDALE 1S N/A 71 50 47 W15G24 29.80S  
#GOLDENDALE 5WNWN/A 70 49 47 W24 29.72F  
#GOODNOE HILLS N/A 75 50 41 W33 29.72R  
#LYLE 6NE N/A 68 51 55 SW17G33 29.76F  

 
 
WAZ026-030010-  
KITTITAS VALLEY  
 
CITY SKY/WX TMP DP RH WIND PRES REMARKS
 
ELLENSBURG AP SUNNY 73 47 40 NW29G43 29.75F  
#ELLENSBURG CWU N/A 71 47 42 N24 29.65F  
#ELLENSBURG 3NE N/A 69 49 49 N14G31 29.76F  
#ELLENSBURG N/A 71 49 46 NW12G24 N/A  
#ELLENSBURG 1E N/A 71 44 38 NW2 N/A  
#KITTITAS 3S N/A 71 49 46 NW15G26 29.66F  
#THORP 6N N/A 65 46 50 NW14G26 29.74F  

 
 
WAZ027-030010-  
YAKIMA VALLEY  
 
CITY SKY/WX TMP DP RH WIND PRES REMARKS
 
SUNNYSIDE AP SUNNY 81 46 29 CALM 29.71F  
YAKIMA AIRPORT PTCLDY 81 44 27 W15G25 29.71F  
YAKIMA-VAGABOND MOSUNNY 80 43 27 W17G26 29.73F  
#COWICHE 1N N/A 74 46 37 NW10 29.92S  
#DONALD 2NE N/A 90 33 13 S1 30.03F HX 86  
#GRANDVIEW N/A 78 43 29 CALM 29.69F  
#MABTON N/A 80 51 36 N3 29.69F  
#MOXEE 2E N/A 79 24 13 W8 29.63F  
#OUTLOOK DOT N/A N/A N/A N/A SW1 N/A  
#SELAH 8E N/A 76 43 31 W12G31 N/A  
#TERRACE HTS N/A 83 46 27 N8 29.64F  
#TOPPENISH N/A 79 50 36 CALM 29.59F  
#WAPATO 4NE N/A 90 33 13 S1 30.03F HX 86  
#WEST VALLEY N/A 77 44 31 N9 29.66F  
#W YAKIMA N/A 77 45 32 W9 29.66F  
#WHITE SWAN 5E N/A 81 46 29 W23G33 29.67F  
#WILEY CITY 3W N/A 76 40 27 CALM 29.71F  

 
 
WAZ028-030010-  
LOWER COLUMBIA BASIN...WASHINGTON  
 
CITY SKY/WX TMP DP RH WIND PRES REMARKS
 
HANFORD MOSUNNY 85 40 20 W16 29.68F  
PASCO SUNNY 84 47 28 SW12 29.69F  
PROSSER AWOS N/A 82 48 31 W3 29.71F  
#BASIN CITY 5SW N/A 82 49 32 S3 29.67F  
#BENTON CITY N/A 81 47 30 W1 29.57F  
#CONNELL 5N N/A 79 47 32 SW7 29.66F  
#CONNELL 5NW N/A 79 48 34 SW9 29.64F  
#ELTOPIA N/A 84 52 33 S5 29.62F  
#ELTOPIA 6NW N/A 79 50 36 S7 28.67F  
#KENNEWICK 3S N/A 82 49 32 W2 29.67F  
#PATERSON N/A 81 54 39 SW15G24 29.65F  
#PROSSER N/A 83 42 24 N1 29.66F  
#SAGEMOOR 2W N/A 82 53 37 S2 29.52F  
#TOUCHET 2S N/A 84 42 23 W7 29.65F  
#WEST PASCO N/A 84 54 36 S5 29.64F  

 
 
WAZ029-030010-  
FOOTHILLS OF THE BLUES...WASHINGTON  
 
CITY SKY/WX TMP DP RH WIND PRES REMARKS
 
WALLA WALLA AP SUNNY 82 37 20 SW17G26 29.75F  
#COLLEGE PLACE N/A 85 38 19 SW9 29.71F  
#DAYTON SCHOOL N/A 78 37 23 E8 29.72F  
#LOWDEN 2SE N/A 82 44 26 W13 29.67F  
#PLEASANT VIEW 1N/A 77 43 30 SW9 29.71F  
#PRESCOTT N/A 80 46 30 SW7 29.67F  
#SUDBURY N/A 83 N/A N/A SW12 N/A  
#WHITMAN COLLEGEN/A 80 39 23 S18 29.73F  
#WAITSBURG 8N N/A 78 33 19 S13 29.65F  
#WALLA WALLA 5E N/A 77 50 39 SW13 N/A  
#WALLA WALLA U N/A 82 38 21 CALM 29.68F  
#WHITMAN MISSIONN/A 82 44 26 W8 29.70F  

 
 
WAZ030-030010-  
BLUE MOUNTAINS...WASHINGTON  
 
CITY SKY/WX TMP DP RH WIND PRES REMARKS
 

 
 
ORZ009-041-WAZ024-030010-  
COLUMBIA RIVER GORGE  
 
CITY SKY/WX TMP DP RH WIND PRES REMARKS
 
HOOD RIVER AP PTCLDY 70 48 46 W5 29.87S  
THE DALLES AP SUNNY 76 47 36 NW32G45 29.80S  
#ARLINGTON AIRPON/A 76 48 37 W25 N/A  
#ARLINGTON HS N/A 79 47 32 NW26 29.62F  
#MARYHILL 2W N/A 71 49 46 W12G26 N/A  
#MOSIER 1S N/A 71 40 32 W8G24 29.85S  
#MURDOCK N/A 73 54 51 W26G41 29.82F  
#RUFUS DOT N/A 76 51 42 W24 N/A  
 

 
 
ORZ510-030010-  
NORTH CENTRAL OREGON  
 
CITY SKY/WX TMP DP RH WIND PRES REMARKS
 
#CHENOWITH 1W N/A 67 47 49 W33 N/A  
#COW CYN RST AREN/A 73 42 33 W14 N/A  
#GRASS VALLEY N/A 68 45 44 NW2 N/A  
#GRASS VALLEY 1SN/A 72 47 41 NW15G24 29.80S  
#KENT DOT N/A 74 36 25 W18 N/A  
#MAUPIN SCHOOL N/A 78 48 35 W15G26 28.68S  
#MORO SCHOOL N/A 70 54 57 NW16G28 29.85S  
#SHANIKO 5WSW N/A 71 36 28 W22 N/A  
#SHANIKO 4NW N/A 69 38 32 W18G25 29.88F  
#TYGH VALLEY 2NEN/A 76 47 36 SW18 29.74F  
#WAPANITIA AIRPON/A 72 46 39 W17G26 29.78F  
#WASCO DOT N/A 71 47 42 W31G38 N/A  
#WASCO AIRPORT N/A 73 43 34 W20 N/A  
#WASCO 5NE N/A 72 48 43 W22G38 29.75S  

 
 
ORZ511-030010-  
CENTRAL OREGON  
 
CITY SKY/WX TMP DP RH WIND PRES REMARKS
 
BEND AIRPORT SUNNY 77 30 18 NW20G25 29.87F  
MADRAS AIRPORT SUNNY 81 39 22 N22G28 29.84F  
REDMOND AIRPORT SUNNY 79 39 24 NW15G26 29.85F  
#BEND 6E N/A 76 29 18 CALM 29.67S  
#BEND 1SW N/A 77 38 24 W2 N/A  
#BEND-AWBREY N/A 82 38 21 E10 29.73F  
#BEND-KIM LN N/A 78 37 23 N3 29.85S  
#CROOKED RVR RANN/A 78 42 28 NW16G24 29.73F  
#CULVER N/A 78 43 29 W13 29.81F  
#LAKE BILLY CHINN/A 77 1 5 SW8 29.88R  
#POWELL BUTTE N/A 78 45 31 N5 29.53S  
#PRINEVILLE 3N N/A 77 46 33 SW12 29.69F  
#WARM SPRINGS N/A 80 44 28 S16 29.77F  
 
 
ORZ509-030010-  
EAST SLOPES OF OREGON CASCADES  
 
CITY SKY/WX TMP DP RH WIND PRES REMARKS
 
#BLUE BOX PASS N/A 56 3 11 S2 N/A  
#BLACK BUTTE RNCN/A 74 46 37 S1 29.79F  
#CAMP SHERMAN N/A 74 44 34 VRB5 29.81R  
#LA PINE DOT N/A 77 25 14 W7 N/A  
#LA PINE 4NW N/A 74 44 34 W3 29.84S  
#LAVA BUTTE DOT N/A 77 36 23 SW2 N/A  
#SISTERS AIRPOR N/A 73 53 49 N17G28 29.88S  
#SISTERS ODOT N/A 73 N/A N/A E7 N/A  
#SISTERS 1NW N/A 74 43 33 NW17 N/A  
#SISTERS 3N N/A 74 41 30 SW3 N/A  
#SUNRIVER N/A 74 40 29 NW5 29.68S  
#SUNRIVER AP N/A 74 39 28 NW7 29.75F  
#SUTTLE LK DOT N/A 65 45 48 CALM N/A  
#TUMALO 3W N/A 75 34 22 NW18 29.62S  
#WANOGA BUTTE D N/A 62 37 39 SW7 N/A  
 

 
 
ORZ044-030010-  
LOWER COLUMBIA BASIN...OREGON  
 
CITY SKY/WX TMP DP RH WIND PRES REMARKS
 
HERMISTON SUNNY 84 42 23 SW18G25 29.71F  
#BOARDMAN SCHOOLN/A 82 45 27 W15G24 29.68F  
#BOARDMAN 3W N/A 82 50 33 SW26 29.38F  
#BOARDMAN 8SW N/A 80 49 34 SW22 29.68F  
#IONE SCHOOL N/A 77 43 30 W18G28 29.75F  
#IRRIGON 4NW N/A 83 47 28 SW15 N/A  
#UMATILLA SCHOOLN/A 84 58 41 W9 29.76S  
#UMATILLA N/A 84 47 28 SW10 29.67F  

 
 
ORZ507-030010-  
NORTHERN FOOTHILLS OF THE BLUES  
 
CITY SKY/WX TMP DP RH WIND PRES REMARKS
 
PENDLETON AIRPT SUNNY 83 35 18 W22G33 29.74F  
#ADAMS 3WNW N/A 81 39 22 W16G28 29.69F  
#ATHENA N/A 79 41 26 W8 29.72F  
#HELIX SCHOOL N/A 78 41 27 W8G26 29.70F  
#HELIX 3N N/A 77 39 25 W18G25 29.74F  
#HOLDMAN 5SE N/A 81 39 22 W16G25 29.75F  
#HOLDMAN 6E N/A 79 38 23 E15G26 29.51F  
#M-F GROVE ELEM N/A 82 31 16 W6 29.73F  
#M-FREEWATER 5SEN/A 80 45 29 W7 29.74F  
#PENDLETON DNTN N/A 83 41 23 NW6 29.69F  
#PDT AQUATIC CTRN/A 83 41 23 W14 29.75F  
#PDT SUNRIDGE N/A 83 39 21 W15 29.73F  
#PENDLETON 7NW N/A 80 45 29 W23G33 N/A  
#PILOT ROCK N/A 81 42 25 W7 29.78F  
#TUTUILLA N/A 85 43 23 W17G24 29.63F  
#UMAPINE 2E N/A 82 49 32 W3 29.68F  
#WESTON SCHOOL N/A 78 34 20 NW10 29.71F  
 

 
 
ORZ508-030010-  
SOUTHERN FOOTHILLS OF THE BLUES  
 
CITY SKY/WX TMP DP RH WIND PRES REMARKS
 
LEXINGTON SUNNY 81 39 22 W24G33 29.78F  
#AJAX N/A 73 41 31 W16G25 29.78F  
#CONDON SCHOOL N/A 73 44 35 W7 29.81F  
#CONDON 5W N/A 71 40 32 NW13 29.83F  
#FOSSIL SCHOOL N/A 75 41 29 NW10 29.81F  
#HEPPNER EOC N/A 77 38 24 W7 29.67F  
#HEPPNER 4NE N/A 73 36 26 W17G26 29.72F  
#LEXINGTON 2SE N/A 78 43 29 NW17G29 29.74F  
#MIKKALO N/A 75 41 29 NW22G33 29.81F  
#OLEX 4N N/A 74 45 35 W30G40 29.75F  
#RUGGS 5NE N/A 76 40 27 W15 30.01R  
#RUGGS 2SW N/A 77 40 26 W10G30 29.76F  
 

 
 
ORZ502-503-030010-  
BLUE MOUNTAINS  
 
CITY SKY/WX TMP DP RH WIND PRES REMARKS
 
MEACHAM SUNNY 73 41 31 MISG 29.86F  
#BATTLE MTN DOT N/A 74 47 38 NW3 N/A  
#HEPPNER 15SE N/A 69 41 36 N8 29.78F  
#LADD CYN SMT N/A 79 31 17 W13 N/A  
#LADD CREEK ODOTN/A 81 43 26 N6 N/A  
#LONG CREEK HS N/A 76 41 28 NW13 N/A  
#N POWDER DOT N/A 84 45 26 NE5 N/A  
#PIKES PEAK N/A 69 35 28 SW21G35 27.99S  
#TOLLGATE N/A 64 42 45 SE2 29.84F  
#TOLLGATE 9W N/A 71 46 41 W7 N/A  
#TROY SCHOOL N/A 85 45 25 NE6 29.49F  
#UKIAH N/A 77 42 29 NW8 29.75F  
#WESTON 4E N/A 74 36 25 SW7 29.66F  

 
 
ORZ505-030010-  
JOHN DAY BASIN  
 
CITY SKY/WX TMP DP RH WIND PRES REMARKS
 
JOHN DAY SUNNY 85 27 12 NW10 29.80F  
#JOHN DAY KJDY N/A 83 50 32 W7 29.77F  
#DAYVILLE SCHOOLN/A 84 36 18 N7 29.75F  
#MONUMENT HS N/A 85 35 17 NW7 29.76F  
#MT. VERNON 5SE N/A 81 32 17 W5 29.78F  
#WINLOCK N/A 78 40 26 CALM 29.92F  

 
 
ORZ506-030010-  
OCHOCO AND JOHN DAY HIGHLANDS  
 
CITY SKY/WX TMP DP RH WIND PRES REMARKS
 
#BUCK CREEK DOT N/A 84 37 19 NW16 N/A  
#HORSE RIDGE DO N/A 76 32 20 N13 N/A  
#KEYES SMT DOT N/A 73 34 24 NW10 N/A  
#PAULINA SCHOOL N/A 84 28 13 W7 29.84F  
#PINE MTN OBS N/A 68 34 28 NW8 N/A  
#PRAIRIE CITY N/A 84 30 14 W5 29.55F  
#SENECA 9NW N/A 81 26 13 CALM 29.71F  

 
 
ORZ049-030010-  
GRANDE RONDE VALLEY  
 
CITY SKY/WX TMP DP RH WIND PRES REMARKS
 
LA GRANDE SUNNY 81 43 26 NW22G25 29.75F  
#COVE N/A 81 50 34 NW2 29.70F  
#COVE SCHOOL N/A 81 47 30 W2 29.77F  
#COVE 6NW N/A 80 44 28 W14 29.71F  
#ELGIN 3N N/A 77 43 30 N10 29.51F  
#ELGIN 1E N/A 80 49 34 NW9 N/A  
#ISLAND CITY 4N N/A 81 51 35 NW1 29.62F  
#LADD CYN DOT N/A 79 44 29 NW17 N/A  
#LA GRANDE ELEM N/A 79 47 32 NW6 29.77F  
#UNION 1S N/A 84 45 26 NW7 29.58F  

 
 
ORZ050-030010-  
WALLOWA COUNTY  
 
CITY SKY/WX TMP DP RH WIND PRES REMARKS
 
JOSEPH AIRPORT PTCLDY 81 30 16 CALM 29.81F  
#ENTERPRISE AP N/A 80 33 18 SW6 29.76F  
#ENTERPRISE HS N/A 81 43 26 NW5 29.78F  
#IMNAHA SCHOOL N/A 87 34 15 CALM 29.57F  
#IMNAHA 10S N/A 87 40 19 SW2 29.73F  
#JOSEPH 3N N/A 79 42 27 W8 29.83F  
#JOSEPH 3W N/A 77 34 21 CALM 29.70F  
#LOSTINE N/A 80 40 24 NW5 29.47F  
#MT HOWARD 8000 N/A 59 31 34 W7 30.07F  
#PROMISE 1S N/A 73 47 40 E12 29.78F  
#SHEEP RDG 7000 N/A 61 33 35 CALM 29.70F  
#WALLOWA SCHOOL N/A 80 43 27 N3 30.57F  
 

 
 
CLICK HERE TO GO TO PREVIOUS BULLETINS.

The Nexlab OR Page
The Nexlab WA Page Main Text Page